Waarnemingen

Advertentie
Mijn weer
Woensdrecht, Nederland (6340): temperatuur & dauwpunt: 22.06.2017 05:00:00 - 28.06.2017 05:00:00 (CEST)Woensdrecht, Nederland (6340): temperatuur 5cm: 22.06.2017 05:00:00 - 28.06.2017 05:00:00 (CEST)Woensdrecht, Nederland (6340): windsnelheid & windstoten: 22.06.2017 05:00:00 - 28.06.2017 05:00:00 (CEST)Woensdrecht, Nederland (6340): windrichting: 22.06.2017 05:00:00 - 28.06.2017 05:00:00 (CEST)Woensdrecht, Nederland (6340): luchtdruk: 22.06.2017 05:00:00 - 28.06.2017 05:00:00 (CEST)Woensdrecht, Nederland (6340): zicht: 22.06.2017 05:00:00 - 28.06.2017 05:00:00 (CEST)
Datum & Tijd tt [°C] td [°C] tt 5cm [°C] ff [km/u] ff [kn] fx [km/u] fx [kn] dd ppp [hPa] vv [km]
28.06.2017 05:00:00 16,9 16,3 16,6 5 3 14 8 O 996,9 4,8
28.06.2017 04:00:00 16,7 16,1 16,4 9 5 18 10 O 997,5 4,5
28.06.2017 03:00:00 16,5 15,8 16,0 13 7 22 12 O 998,0 4,7
28.06.2017 02:00:00 16,7 15,9 16,4 15 8 25 14 O 998,8 6
28.06.2017 01:00:00 16,7 15,5 16,3 16 9 22 12 ONO 1000,0 7
28.06.2017 00:00:00 16,3 15,3 16,0 15 8 22 12 ONO 1000,8 7
27.06.2017 23:00:00 16,5 15,2 16,3 15 8 32 18 O 1001,8 10
27.06.2017 22:00:00 18,5 14,1 18,0 21 11 29 16 ONO 1002,5 10
27.06.2017 21:00:00 18,7 14,2 18,5 22 12 29 16 ONO 1003,0 10
27.06.2017 20:00:00 18,7 14,8 18,6 18 10 25 14 ONO 1003,4 10
27.06.2017 19:00:00 19,2 15,2 19,1 15 8 22 12 ONO 1004,3 10
27.06.2017 18:00:00 18,9 15,4 18,9 13 7 22 12 ONO 1005,1 10
27.06.2017 17:00:00 18,7 15,3 18,7 15 8 25 14 O 1006,1 10
27.06.2017 16:00:00 18,0 15,2 18,3 16 9 25 14 O 1006,8 9
27.06.2017 15:00:00 20,1 13,1 21,7 13 7 25 14 O 1007,3 10
27.06.2017 14:00:00 20,8 11,8 22,3 16 9 29 16 O 1007,8 10
27.06.2017 13:00:00 21,0 11,6 22,8 16 9 25 14 O 1008,3 10
27.06.2017 12:00:00 19,7 11,1 21,8 15 8 25 14 O 1008,9 10
27.06.2017 11:00:00 18,6 10,7 19,6 15 8 22 12 O 1009,4 10
27.06.2017 10:00:00 17,5 10,1 19,7 15 8 25 14 O 1010,3 10
27.06.2017 09:00:00 15,7 9,2 16,5 18 10 25 14 ONO 1010,2 10
27.06.2017 08:00:00 14,6 9,1 14,9 16 9 29 16 O 1010,2 10
27.06.2017 07:00:00 13,3 9,1 12,4 15 8 22 12 ONO 1010,8 10
27.06.2017 06:00:00 12,5 9,1 12,0 15 8 18 10 ONO 1011,2 10
27.06.2017 05:00:00 11,1 8,9 10,0 13 7 14 8 ONO 1011,7 10
27.06.2017 04:00:00 12,1 9,3 10,4 11 6 14 8 ONO 1012,4 10
27.06.2017 03:00:00 12,4 9,2 11,4 13 7 18 10 ONO 1012,8 10
27.06.2017 02:00:00 14,2 9,7 13,2 13 7 18 10 NO 1013,0 10
27.06.2017 01:00:00 13,5 10,2 12,6 11 6 18 10 NO 1013,6 10
27.06.2017 00:00:00 14,9 10,7 14,2 9 5 18 10 NNO 1013,8 10
26.06.2017 23:00:00 15,9 10,4 15,2 11 6 18 10 NO 1013,5 10
26.06.2017 22:00:00 17,0 9,6 16,4 9 5 18 10 NNO 1013,4 10
26.06.2017 21:00:00 18,5 9,9 18,9 13 7 22 12 N 1013,0 10
26.06.2017 20:00:00 19,8 8,5 21,3 13 7 22 12 N 1013,5 10
26.06.2017 19:00:00 20,3 7,2 22,3 13 7 29 16 NO 1013,7 10
26.06.2017 18:00:00 20,6 7,4 23,3 15 8 25 14 - 1013,8 10
26.06.2017 17:00:00 20,6 7,1 24,5 15 8 25 14 - 1014,1 10
26.06.2017 16:00:00 21,0 8,5 25,0 16 9 29 16 WNW 1014,4 10
26.06.2017 15:00:00 20,5 8,5 24,9 16 9 29 16 W 1014,8 10
26.06.2017 14:00:00 20,4 9,2 24,1 16 9 32 18 - 1014,9 10
26.06.2017 13:00:00 20,2 8,8 24,4 16 9 29 16 - 1014,8 10
26.06.2017 12:00:00 19,3 8,8 22,0 15 8 29 16 WNW 1014,5 10
26.06.2017 11:00:00 18,7 8,7 22,2 11 6 29 16 WNW 1014,6 10
26.06.2017 10:00:00 17,8 10,0 18,4 13 7 25 14 NW 1014,7 10
26.06.2017 09:00:00 17,3 10,0 19,1 15 8 22 12 WNW 1014,4 10
26.06.2017 08:00:00 16,6 10,5 16,5 9 5 22 12 - 1014,2 10
26.06.2017 07:00:00 16,2 11,4 16,0 8 4 18 10 NW 1013,5 10
26.06.2017 06:00:00 15,9 11,8 15,2 9 5 22 12 NW 1013,0 10
26.06.2017 05:00:00 16,3 14,0 15,8 15 8 25 14 NW 1012,7 10
26.06.2017 04:00:00 16,6 15,1 16,4 15 8 25 14 WZW 1012,4 10
26.06.2017 03:00:00 16,7 14,6 16,5 18 10 29 16 WZW 1012,6 10
26.06.2017 02:00:00 16,9 13,9 16,7 18 10 29 16 WZW 1012,4 10
26.06.2017 01:00:00 17,2 13,7 17,0 22 12 36 19 WZW 1012,4 10
26.06.2017 00:00:00 17,5 13,5 17,2 22 12 43 23 WZW 1012,4 10
25.06.2017 23:00:00 18,0 13,7 17,8 15 8 32 18 ZW 1012,4 10
25.06.2017 22:00:00 18,6 13,2 18,3 21 11 36 19 ZW 1012,2 10
25.06.2017 21:00:00 19,4 12,9 19,3 24 13 36 19 WZW 1012,0 10
25.06.2017 20:00:00 19,9 13,1 20,2 26 14 36 19 ZW 1012,1 10
25.06.2017 19:00:00 20,3 12,8 21,0 28 15 43 23 WZW 1012,3 10
25.06.2017 18:00:00 19,9 13,3 20,4 26 14 36 19 W 1012,6 10
25.06.2017 17:00:00 21,3 14,0 23,2 26 14 40 21 W 1012,5 10
25.06.2017 16:00:00 20,1 14,3 20,6 16 9 32 18 W 1012,9 10
25.06.2017 15:00:00 20,5 13,7 22,6 22 12 36 19 W 1013,0 10
25.06.2017 14:00:00 19,8 13,3 20,8 26 14 40 21 W 1013,1 10
25.06.2017 13:00:00 19,2 13,7 20,1 22 12 40 21 W 1013,0 10
25.06.2017 12:00:00 19,3 13,4 20,7 29 16 47 25 WZW 1012,8 10
25.06.2017 11:00:00 19,7 13,3 21,1 34 18 47 25 WZW 1012,2 10
25.06.2017 10:00:00 18,9 14,4 17,7 26 14 43 23 WZW 1012,0 10
25.06.2017 09:00:00 17,5 14,6 17,4 28 15 40 21 WZW 1011,8 10
25.06.2017 08:00:00 17,1 14,7 16,7 22 12 40 21 WZW 1011,5 10
25.06.2017 07:00:00 17,3 14,4 17,3 24 13 40 21 WZW 1011,3 10
25.06.2017 06:00:00 17,4 14,4 17,1 26 14 36 19 WZW 1011,2 10
25.06.2017 05:00:00 17,7 14,7 17,4 31 17 50 27 WZW 1011,2 10
25.06.2017 04:00:00 18,0 15,0 17,7 26 14 40 21 WZW 1011,4 10
25.06.2017 03:00:00 18,0 15,5 17,6 21 11 29 16 ZW 1011,7 10
25.06.2017 02:00:00 17,9 15,4 17,5 16 9 36 19 ZW 1012,1 10
25.06.2017 01:00:00 17,7 15,2 17,5 21 11 36 19 ZW 1012,6 10
25.06.2017 00:00:00 17,9 15,0 17,5 22 12 40 21 ZW 1013,1 10
24.06.2017 23:00:00 18,0 15,1 17,6 22 12 36 19 ZW 1013,2 10
24.06.2017 22:00:00 18,5 15,1 17,9 24 13 40 21 ZW 1013,1 10
24.06.2017 21:00:00 18,3 15,6 17,9 22 12 32 18 ZW 1013,4 10
24.06.2017 20:00:00 18,2 16,0 17,8 18 10 36 19 ZW 1013,7 10
24.06.2017 19:00:00 17,7 16,3 17,5 21 11 36 19 ZW 1014,0 10
24.06.2017 18:00:00 17,5 16,6 17,4 18 10 29 16 ZW 1014,5 9
24.06.2017 17:00:00 17,2 16,2 17,3 26 14 40 21 ZW 1015,0 3,6
24.06.2017 16:00:00 17,9 15,2 17,8 22 12 36 19 WZW 1015,2 6
24.06.2017 15:00:00 18,0 14,7 18,5 24 13 43 23 WZW 1015,4 10
24.06.2017 14:00:00 18,0 14,3 18,3 22 12 40 21 ZW 1015,6 10
24.06.2017 13:00:00 17,7 14,4 18,0 24 13 43 23 ZW 1015,5 10
24.06.2017 12:00:00 17,6 14,1 18,1 24 13 47 25 ZW 1015,3 10
24.06.2017 11:00:00 17,5 14,0 17,7 22 12 40 21 WZW 1015,3 10
24.06.2017 10:00:00 16,9 13,8 16,9 21 11 32 18 ZW 1015,4 10
24.06.2017 09:00:00 16,2 13,8 15,7 22 12 40 21 ZW 1015,3 7
24.06.2017 08:00:00 16,7 13,0 16,8 26 14 43 23 ZW 1015,0 10
24.06.2017 07:00:00 15,9 13,1 15,6 22 12 40 21 ZW 1015,1 10
24.06.2017 06:00:00 15,0 12,7 14,4 21 11 36 19 ZW 1015,4 10
24.06.2017 05:00:00 15,1 12,7 14,3 18 10 36 19 ZW 1015,7 10
24.06.2017 04:00:00 15,5 12,8 14,7 18 10 32 18 ZW 1016,0 10
24.06.2017 03:00:00 15,5 12,4 14,9 18 10 32 18 ZW 1016,4 10
24.06.2017 02:00:00 16,1 12,0 15,5 18 10 36 19 ZW 1016,4 10
24.06.2017 01:00:00 16,6 11,8 16,1 21 11 40 21 ZW 1016,8 10
24.06.2017 00:00:00 17,0 11,8 16,4 22 12 36 19 ZW 1017,1 10
23.06.2017 23:00:00 17,5 11,9 16,8 18 10 36 19 ZW 1017,3 10
23.06.2017 22:00:00 18,6 11,8 17,9 22 12 36 19 WZW 1017,1 10
23.06.2017 21:00:00 19,7 11,7 19,5 28 15 40 21 WZW 1016,7 10
23.06.2017 20:00:00 21,3 13,1 22,1 26 14 36 19 W 1016,7 10
23.06.2017 19:00:00 21,9 13,4 22,7 26 14 36 19 W 1016,3 10
23.06.2017 18:00:00 23,1 13,6 25,5 24 13 36 19 W 1016,3 10
23.06.2017 17:00:00 23,2 14,2 25,9 26 14 40 21 W 1016,3 10
23.06.2017 16:00:00 23,3 14,3 27,2 24 13 40 21 W 1016,4 10
23.06.2017 15:00:00 23,1 13,9 25,6 24 13 47 25 W 1016,4 10
23.06.2017 14:00:00 24,4 13,4 25,7 26 14 40 21 WZW 1016,2 10
23.06.2017 13:00:00 23,2 15,2 24,4 26 14 36 19 W 1016,3 10
23.06.2017 12:00:00 21,1 15,3 22,5 16 9 32 18 WZW 1016,3 10
23.06.2017 11:00:00 20,6 15,0 22,0 18 10 29 16 ZW 1016,2 10
23.06.2017 10:00:00 19,9 15,6 20,4 18 10 29 16 WZW 1015,8 10
23.06.2017 09:00:00 18,4 15,4 19,5 15 8 25 14 ZW 1015,3 10
23.06.2017 08:00:00 17,9 15,7 17,8 15 8 22 12 ZW 1015,0 10
23.06.2017 07:00:00 17,3 15,7 16,9 13 7 22 12 WZW 1014,6 10
23.06.2017 06:00:00 16,6 15,6 16,0 11 6 18 10 WZW 1014,3 9
23.06.2017 05:00:00 16,7 15,4 16,0 13 7 22 12 WZW 1013,9 10
23.06.2017 04:00:00 17,5 15,3 16,5 15 8 22 12 WZW 1013,8 10
23.06.2017 03:00:00 18,4 15,4 18,0 13 7 22 12 WZW 1013,8 10
23.06.2017 02:00:00 18,7 15,5 18,4 11 6 22 12 ZW 1013,9 10
23.06.2017 01:00:00 18,6 15,9 18,1 13 7 22 12 WZW 1013,7 10
23.06.2017 00:00:00 18,9 15,7 18,5 15 8 29 16 WZW 1013,5 10
22.06.2017 23:00:00 19,5 15,3 19,1 24 13 36 19 W 1013,3 10
22.06.2017 22:00:00 19,7 15,5 19,0 26 14 36 19 W 1012,7 10
22.06.2017 21:00:00 20,1 15,7 19,9 28 15 50 27 W 1012,2 10
22.06.2017 20:00:00 21,1 16,1 21,2 35 19 54 29 W 1011,7 10
22.06.2017 19:00:00 22,2 15,3 22,5 35 19 47 25 W 1011,2 10
22.06.2017 18:00:00 23,2 16,8 21,7 26 14 40 21 W 1010,4 10
22.06.2017 17:00:00 24,6 17,1 24,6 21 11 40 21 WNW 1010,3 10
22.06.2017 16:00:00 27,2 17,2 28,6 16 9 47 25 W 1009,7 10
22.06.2017 15:00:00 30,5 16,5 33,9 21 11 40 21 WNW 1009,7 10
22.06.2017 14:00:00 32,6 16,1 35,8 26 14 36 19 W 1009,8 10
22.06.2017 13:00:00 31,3 16,6 34,9 21 11 32 18 WZW 1010,3 10
22.06.2017 12:00:00 29,7 17,7 32,9 24 13 32 18 WZW 1010,8 10
22.06.2017 11:00:00 28,5 17,3 31,0 22 12 40 21 WZW 1010,8 10
22.06.2017 10:00:00 26,9 18,5 29,1 16 9 32 18 WZW 1011,0 10
22.06.2017 09:00:00 26,3 18,5 27,2 13 7 22 12 ZW 1011,0 10
22.06.2017 08:00:00 24,8 16,9 25,4 16 9 22 12 ZW 1011,0 10
22.06.2017 07:00:00 24,7 16,2 23,8 11 6 18 10 ZW 1010,9 10
22.06.2017 06:00:00 22,8 15,8 21,2 8 4 11 6 Z 1010,9 10
22.06.2017 05:00:00 23,1 15,4 21,8 8 4 14 8 ZZO 1011,1 10

tt = temperatuur
td = dauwpunt
tt 5cm = temperatuur 5cm
ff = windsnelheid
fx = windstoten
dd = windrichting
ppp = luchtdruk
vv = zicht

Weerstations in de omgeving